Location: Marsån
(66.4167°N, 22.2833°E)
Time: 09:49:11
(UTC+00:00)

Meteor 1-11 Rocket - Pass Details

Date: 24 February 2024
Orbit: 830 x 915 km, 81.2° (Epoch: 15 April)

Event Time Altitude Azimuth Distance (km) Brightness Sun altitude
Exits shadow 21:06:22 46° 46° (NE) 1,203 4.5 -30.6°
Drops below altitude 10° 21:10:40 10° 23° (NNE) 2,612 6.7 -30.8°
Sets 21:13:11 0° 21° (NNE) 3,563 7.5 -30.9°
